Weather History for Ardmore, OK

Change the Weather History Date:

Sunday, August 18, 2013

  Actual Average Record
Temperature  
Mean Temperature 74 °F -  
Max Temperature 88 °F 92 °F 107 °F (1999)
Min Temperature 62 °F 71 °F 62 °F (2013)
Cooling Degree Days 10    
Growing Degree Days 24 (Base 50)    
Moisture  
Dew Point 63 °F    
Average Humidity 84    
Maximum Humidity 99    
Minimum Humidity 43    
Precipitation  
Precipitation 0.00 in - - ()
Sea Level Pressure  
Sea Level Pressure 30.07 in    
Wind  
Wind Speed 2 mph (ESE)    
Max Wind Speed 7 mph    
Max Gust Speed -    
Visibility 10 miles    
Events      
Averages and records for this station are not official NWS values.
T = Trace of Precipitation, MM = Missing Value Source: NWS Daily Summary

Daily Weather History Graph

Daily Weather History Graph

Search for Another Location

Airport:

Trip Planner

Search our weather history database for the weather conditions in past years. The results will help you decide how hot, cold, wet, or windy it might be!

Date:

Astronomy

Aug. 18, 2013 Rise Set
Actual Time 6:51 AM CDT 8:11 PM CDT
Civil Twilight 6:25 AM CDT 8:37 PM CDT
Nautical Twilight 5:53 AM CDT 9:09 PM CDT
Astronomical Twilight 5:20 AM CDT 9:41 PM CDT
Moon 6:16 PM CDT (8/18) 4:06 AM CDT (8/18)
Length of Visible Light 14h 12m
Length of Day
13h 19m
Waxing Gibbous, 92% of the Moon is Illuminated
Aug 18
Waxing Gibbous
Aug 20
Full
Aug 28
Last Quarter
Sep 5
New
Sep 12
First Quarter

Hourly Weather History & Observations

Time (CDT) Temp. Heat Index Dew Point Humidity Pressure Visibility Wind Dir Wind Speed Gust Speed Precip Events Conditions
12:15 AM 69.1 °F - 62.6 °F 80% 30.07 in 10.0 mi East 3.5 mph - N/A   Clear
12:35 AM 68.5 °F - 62.6 °F 81% 30.07 in 10.0 mi East 4.6 mph - N/A   Clear
12:55 AM 68.9 °F - 62.4 °F 80% 30.07 in 10.0 mi Calm Calm - N/A   Clear
1:15 AM 68.5 °F - 62.2 °F 80% 30.07 in 10.0 mi East 4.6 mph - N/A   Clear
1:35 AM 68.0 °F - 62.1 °F 81% 30.07 in 10.0 mi Calm Calm - N/A   Clear
1:55 AM 67.1 °F - 61.9 °F 83% 30.07 in 10.0 mi Calm Calm - N/A   Clear
2:15 AM 65.8 °F - 62.1 °F 88% 30.07 in 10.0 mi Calm Calm - N/A   Clear
2:35 AM 65.5 °F - 62.8 °F 91% 30.06 in 10.0 mi ESE 3.5 mph - N/A   Clear
2:55 AM 66.4 °F - 62.8 °F 88% 30.06 in 10.0 mi Calm Calm - N/A   Clear
3:15 AM 65.3 °F - 63.1 °F 93% 30.06 in 10.0 mi Calm Calm - N/A   Clear
3:35 AM 64.2 °F - 62.8 °F 95% 30.06 in 10.0 mi Calm Calm - N/A   Clear
3:55 AM 63.7 °F - 62.4 °F 96% 30.06 in 10.0 mi Calm Calm - N/A   Clear
4:15 AM 63.3 °F - 63.0 °F 99% 30.06 in 7.0 mi Calm Calm - N/A   Clear
4:35 AM 65.3 °F - 63.1 °F 93% 30.06 in 10.0 mi Calm Calm - N/A   Scattered Clouds
4:55 AM 64.2 °F - 63.0 °F 96% 30.06 in 10.0 mi Calm Calm - N/A   Scattered Clouds
5:15 AM 63.7 °F - 62.6 °F 96% 30.06 in 10.0 mi Calm Calm - N/A   Clear
5:35 AM 63.3 °F - 62.8 °F 98% 30.06 in 10.0 mi Calm Calm - N/A   Clear
5:55 AM 62.8 °F - 61.9 °F 97% 30.06 in 10.0 mi Calm Calm - N/A   Clear
6:15 AM 63.1 °F - 62.6 °F 98% 30.07 in 10.0 mi Calm Calm - N/A   Clear
6:35 AM 64.0 °F - 62.6 °F 95% 30.07 in 10.0 mi Calm Calm - N/A   Clear
7:55 AM 66.2 °F - 64.4 °F 94% 30.10 in 10.0 mi Calm Calm - N/A   Clear
8:55 AM 71.6 °F - 66.2 °F 83% 30.12 in 10.0 mi Calm Calm - N/A   Clear
9:55 AM 77.0 °F - 66.2 °F 69% 30.12 in 10.0 mi SE 6.9 mph - N/A   Clear
11:55 AM 80.6 °F 82.7 °F 66.2 °F 61% 30.12 in 10.0 mi SE 5.8 mph - N/A   Clear
1:55 PM 84.2 °F 85.6 °F 64.4 °F 51% 30.09 in 10.0 mi SE 5.8 mph - N/A   Scattered Clouds
2:55 PM 87.8 °F 88.5 °F 62.6 °F 43% 30.07 in 10.0 mi SSE 5.8 mph - N/A   Clear
11:35 PM 72.1 °F - 64.2 °F 76% 30.05 in 10.0 mi Calm Calm - N/A   Clear
11:55 PM 72.0 °F - 64.0 °F 76% 30.05 in 10.0 mi NE 3.5 mph - N/A   Clear